Date,TemperatureHighF,TemperatureAvgF,TemperatureLowF,DewpointHighF,DewpointAvgF,DewpointLowF,HumidityHigh,HumidityAvg,HumidityLow,PressureMaxIn,PressureMinIn,WindSpeedMaxMPH,WindSpeedAvgMPH,GustSpeedMaxMPH,PrecipitationSumIn
2013-1-1,45,41,37,44,39,32,100,93,79,30.03,29.81,11,3,15,0.02
2013-1-2,44,37,28,34,30,24,90,75,52,30.10,30.00,9,3,13,0.00
2013-1-3,57,37,24,33,24,15,100,68,20,30.24,30.09,7,2,11,0.00
2013-1-4,56,41,29,37,24,12,94,58,19,30.31,30.15,5,1,8,0.00
2013-1-5,54,43,33,37,33,29,91,69,48,30.16,30.00,8,1,12,0.00
2013-1-6,64,41,27,35,21,3,100,59,10,30.15,30.06,11,2,15,0.00
2013-1-7,58,38,23,31,20,10,90,55,15,30.19,29.94,9,1,14,0.00
2013-1-8,50,43,36,47,33,24,94,68,54,29.95,29.81,7,2,11,0.06
2013-2-21,44,38,34,40,34,27,100,86,71,29.76,29.46,10,1,17,0.44
2013-2-22,56,42,33,40,24,10,99,57,16,29.91,29.70,8,2,12,0.00
2013-2-23,62,42,27,31,22,12,85,49,14,29.87,29.70,6,0,9,0.00
2013-2-24,67,48,30,33,26,16,88,50,15,29.81,29.55,12,1,15,0.00
2013-2-25,55,50,45,51,39,30,92,68,47,29.54,29.18,14,2,20,0.44
2013-2-26,56,44,36,37,28,13,84,57,18,29.68,29.25,17,8,23,0.04
2013-2-27,57,43,30,31,22,11,87,48,17,29.92,29.68,13,3,18,0.00
2013-2-28,59,45,32,26,17,2,69,38,10,30.00,29.88,14,2,21,0.00
2013-3-1,55,42,31,26,16,-2,76,41,10,30.04,29.91,14,1,21,0.00
2013-3-2,54,40,29,16,7,-8,57,29,10,30.16,30.01,12,1,20,0.00
2013-3-3,68,48,25,26,14,-1,76,35,10,30.03,29.62,11,1,15,0.00
2013-3-4,82,63,48,46,34,19,67,39,10,29.63,29.37,16,2,23,0.01
2013-3-5,59,50,37,44,16,-4,64,30,10,30.10,29.49,17,5,26,0.06
2013-3-6,68,48,32,23,10,-5,55,26,10,30.21,30.00,7,0,11,0.00
2013-3-7,68,52,38,26,17,5,59,29,10,30.11,29.93,9,0,16,0.00
2013-3-8,65,56,43,29,24,14,55,31,15,30.06,29.84,8,0,14,0.00
2013-3-9,68,63,56,56,45,27,80,54,28,29.84,29.51,13,3,23,0.04
2013-3-10,61,52,42,58,41,22,100,68,33,29.81,29.47,21,6,25,0.89
2013-3-11,58,44,32,24,16,-2,67,39,10,29.85,29.75,15,4,21,0.00
2013-3-12,74,51,29,33,19,5,84,41,10,30.08,29.84,6,0,8,0.00
2013-3-13,48,44,40,32,30,30,67,58,51,30.13,30.08,0,0,1,0.00
2013-3-14,78,56,34,37,24,12,78,39,10,30.17,29.94,11,2,14,0.00
2013-3-15,82,63,41,46,36,19,87,45,10,29.95,29.67,11,3,18,0.00
2013-3-16,84,68,47,49,42,34,80,43,17,29.68,29.50,9,2,17,0.00
2013-3-17,78,67,56,57,52,44,73,58,40,29.56,29.40,9,2,14,0.00
2013-3-18,72,55,46,52,35,26,88,48,20,29.81,29.44,8,0,14,0.05
2013-3-19,68,53,36,42,24,6,85,43,10,29.94,29.78,11,0,18,0.00
2013-3-20,70,55,36,29,15,2,59,25,10,30.10,29.85,10,0,17,0.00
2013-3-21,49,44,40,35,24,4,80,48,17,29.85,29.52,14,2,20,0.13
2013-3-22,48,44,40,46,41,35,95,90,80,29.65,29.50,10,0,17,0.04
2013-3-23,50,47,44,50,46,41,100,95,86,29.67,29.45,8,0,14,0.18
2013-3-24,50,44,37,50,27,13,100,54,23,29.92,29.49,20,8,33,0.50
2013-3-25,54,41,30,19,8,-8,57,30,10,30.17,29.92,17,4,24,0.05
2013-3-26,35,33,30,16,13,11,52,43,37,30.17,30.16,0,0,1,0.00
2013-3-27,70,61,28,24,10,1,74,15,10,30.16,29.92,11,2,16,0.00
2013-3-28,77,61,44,46,34,18,51,37,23,30.06,29.89,8,1,13,0.00
2013-3-29,74,66,60,59,51,45,91,61,41,29.97,29.83,8,1,14,0.02
2013-3-30,72,62,58,66,59,57,100,90,65,29.86,29.68,12,0,18,0.52
2013-3-31,83,64,53,65,53,33,100,74,20,29.75,29.62,16,0,23,1.09
2013-4-1,86,65,44,58,40,21,100,53,10,29.87,29.74,6,0,11,0.00
2013-4-2,61,55,43,49,41,31,92,61,35,29.91,29.79,14,2,24,0.46
2013-4-3,54,47,43,42,31,20,92,55,29,29.94,29.83,13,2,22,0.01
2013-4-4,55,45,40,42,38,28,93,78,49,29.94,29.85,6,0,9,0.50
2013-4-5,78,57,36,50,31,12,100,52,10,29.99,29.82,6,0,9,0.01
2013-4-6,81,65,47,48,38,23,81,43,12,29.83,29.61,11,2,19,0.00
2013-4-7,76,66,57,56,52,46,76,63,44,29.74,29.57,10,1,17,0.00
2013-4-8,80,71,62,61,55,52,86,58,38,29.61,29.49,11,2,15,0.00
2013-4-9,89,77,68,63,56,46,75,52,24,29.57,29.46,14,5,22,0.01
2013-4-10,77,75,74,64,63,62,67,65,63,29.55,29.49,11,6,18,0.00
2013-4-11,65,49,37,36,26,11,78,48,12,29.70,29.53,11,4,15,0.01
2013-4-12,80,57,36,42,30,15,87,47,10,29.76,29.62,7,1,10,0.00
2013-4-13,82,65,47,43,32,18,72,37,10,29.83,29.58,6,1,9,0.00
2013-4-14,84,70,52,52,48,38,81,48,20,29.59,29.34,8,1,14,0.00
2013-4-15,91,76,63,63,58,51,85,57,26,29.57,29.44,9,1,14,0.00
2013-4-16,93,79,66,67,61,54,83,59,28,29.72,29.55,10,1,16,0.00
2013-4-17,90,80,74,71,64,55,88,60,32,29.71,29.46,13,4,22,0.02
2013-4-18,78,60,45,65,47,24,92,64,36,29.85,29.34,17,6,25,1.00
2013-4-19,66,49,38,32,18,-1,69,36,10,29.98,29.85,14,4,20,0.00
2013-4-20,77,56,34,39,25,10,86,42,10,30.01,29.84,10,1,16,0.00
2013-4-21,78,60,42,47,31,13,81,42,10,30.03,29.87,12,1,21,0.00
2013-4-22,82,64,44,47,35,18,82,42,10,29.95,29.67,10,1,19,0.00
2013-4-23,80,62,46,56,47,34,73,59,41,29.85,29.65,17,3,21,0.00
2013-4-24,46,44,41,36,34,33,81,70,62,29.91,29.85,9,3,16,0.11
2013-4-25,77,57,36,41,26,12,84,41,10,30.14,29.98,5,1,8,0.00
2013-4-26,73,60,54,54,45,34,79,59,39,30.01,29.83,9,1,16,0.06
2013-4-27,80,65,55,67,55,48,100,73,54,29.84,29.75,17,2,22,0.01
2013-4-28,91,68,49,53,46,24,95,55,10,29.81,29.64,6,0,10,0.00
2013-4-29,93,73,53,60,50,32,97,53,12,29.71,29.57,8,1,14,0.00
2013-4-30,90,73,53,62,51,40,94,53,18,29.64,29.54,8,1,14,0.00
2013-5-1,83,71,63,65,58,18,93,65,37,29.79,29.61,101,2,105,0.00
2013-5-2,72,60,43,60,49,32,88,68,35,29.97,29.76,14,2,20,0.05
2013-5-3,67,51,39,35,22,3,79,43,10,29.97,29.75,20,4,33,0.34
2013-5-4,61,49,35,36,26,1,80,48,10,29.77,29.66,16,2,25,0.04
2013-5-5,70,55,41,41,33,14,84,50,13,29.88,29.76,14,1,18,0.00
2013-5-6,85,65,47,48,38,21,86,48,10,29.84,29.70,9,1,14,0.00
2013-5-7,91,68,49,58,41,20,88,49,10,29.86,29.72,7,0,9,0.00
2013-5-8,90,72,51,55,48,34,90,50,15,29.80,29.67,8,0,14,0.00
2013-5-9,73,68,62,66,60,53,100,79,54,29.80,29.67,4,0,8,0.19
2013-5-10,85,71,61,71,61,52,100,76,35,29.79,29.65,12,0,16,0.02
2013-5-11,87,72,58,56,44,21,89,47,10,29.91,29.77,6,0,10,0.00
2013-5-12,85,67,45,47,31,13,80,34,10,30.03,29.90,3,0,7,0.00
2013-5-13,90,69,48,54,36,18,90,43,10,30.01,29.86,7,0,16,0.00
2013-5-14,94,73,50,56,44,26,91,44,10,29.92,29.77,6,0,12,0.00
2013-5-15,82,69,59,66,56,46,100,66,44,29.83,29.62,9,0,15,0.83
2013-5-16,64,64,64,64,64,63,99,99,99,29.71,29.56,9,1,12,0.35
2013-5-20,91,80,69,67,64,58,75,60,43,29.63,29.48,8,0,16,0.00
2013-5-21,76,67,61,67,62,58,99,86,68,29.65,29.46,9,1,15,1.69
2013-5-22,93,72,61,64,58,42,99,68,17,29.71,29.59,5,0,8,0.02
2013-5-23,91,73,59,71,64,58,99,76,34,29.86,29.69,1,0,4,0.01
2013-5-24,84,75,69,69,60,55,95,63,42,29.98,29.82,6,1,13,0.00
2013-5-25,85,74,65,69,58,51,78,59,40,29.98,29.83,4,0,7,0.01
2013-5-26,88,79,68,69,60,51,89,56,31,29.89,29.77,6,0,14,0.00
2013-5-27,89,79,70,72,65,58,100,67,37,29.79,29.60,8,0,19,0.00
2013-5-28,91,80,70,67,62,55,85,57,31,29.70,29.59,8,1,17,0.00
2013-5-29,89,79,69,68,64,60,89,61,40,29.69,29.53,8,1,15,0.00
2013-5-30,88,78,74,75,69,63,86,73,55,29.63,29.47,8,1,15,0.21
2013-5-31,97,85,78,72,69,64,78,61,35,29.64,29.44,7,1,14,0.01
2013-6-1,81,75,69,73,70,62,100,82,67,29.71,29.52,9,0,14,0.39
2013-6-2,89,74,61,70,56,43,100,61,21,29.80,29.69,9,0,14,0.01
2013-6-3,92,74,58,65,56,48,100,59,24,29.78,29.63,4,0,6,0.00
2013-6-4,89,75,63,65,61,58,90,65,36,29.83,29.62,4,0,10,0.00
2013-6-5,97,80,67,70,65,59,89,64,30,29.77,29.56,7,0,11,0.00
2013-6-6,74,71,69,72,69,64,100,91,77,29.67,29.57,17,1,23,0.05
2013-6-7,90,73,60,64,54,34,92,57,14,29.73,29.64,0,0,3,0.00
2013-6-8,91,75,58,70,54,41,100,56,18,29.73,29.60,6,0,9,0.00
2013-6-9,97,78,65,69,64,57,97,67,28,29.69,29.61,8,0,12,0.06
2013-6-10,101,83,65,76,65,50,100,63,19,29.74,29.66,11,1,16,0.00
2013-6-11,99,84,67,77,68,61,100,64,29,29.81,29.70,7,1,12,0.00
2013-6-12,98,85,70,74,68,61,95,61,31,29.83,29.70,8,1,14,0.00
2013-6-13,103,89,71,82,69,60,100,58,27,29.80,29.65,9,1,13,0.00
2013-6-14,100,85,75,76,71,63,100,65,31,29.77,29.66,6,0,10,0.00
2013-6-15,95,80,72,74,67,54,92,69,27,29.81,29.68,3,0,8,0.13
2013-6-16,99,83,73,75,71,64,97,70,37,29.79,29.63,8,0,14,0.11
2013-6-17,91,76,68,74,68,64,99,81,42,29.75,29.64,12,1,17,0.72
2013-6-18,90,82,68,73,63,60,97,55,38,29.75,29.66,3,0,7,0.00
2013-6-19,94,79,64,71,65,59,100,67,33,29.81,29.69,4,0,8,0.00
2013-6-20,98,83,71,74,69,63,100,67,35,29.84,29.74,4,0,8,0.00
2013-6-21,78,76,75,72,72,71,92,86,78,29.81,29.80,0,0,0,0.00
2013-7-11,107,84,73,77,69,59,100,66,24,29.78,29.65,9,0,15,0.09
2013-7-12,101,84,71,72,66,57,100,61,24,29.79,29.67,0,0,2,0.00
2013-7-13,96,81,65,67,56,44,81,47,18,29.80,29.68,1,0,4,0.00
2013-7-14,89,77,70,64,60,52,72,58,28,29.77,29.69,0,0,1,0.00
2013-7-15,89,77,72,71,65,62,100,69,41,29.91,29.73,9,0,13,0.12
2013-7-16,96,81,69,74,67,60,100,69,31,29.98,29.87,5,0,8,0.01
2013-7-17,98,90,74,71,63,55,87,44,25,30.02,29.90,8,0,12,0.00
2013-7-18,106,87,71,78,63,41,100,54,12,29.95,29.75,8,0,14,0.00
2013-7-19,95,80,72,71,67,62,89,69,34,29.83,29.71,12,1,20,0.00
2013-7-20,100,80,70,76,69,56,100,75,24,29.76,29.61,6,0,14,0.53
2013-7-21,98,83,72,79,70,60,100,69,30,29.72,29.61,11,0,15,0.01
2013-7-22,102,86,74,76,69,62,95,61,28,29.73,29.62,6,1,11,0.00
2013-7-23,102,84,73,75,70,62,96,65,32,29.73,29.58,19,1,26,1.81
2013-7-24,94,78,70,74,68,59,100,76,32,29.78,29.61,9,0,12,0.85
2013-7-25,98,82,68,80,68,58,100,69,28,29.84,29.73,2,0,4,0.00
2013-7-26,76,74,69,76,71,67,100,93,83,29.84,29.63,7,0,10,3.45
2013-7-27,97,81,70,78,65,50,99,66,22,29.77,29.67,3,0,7,0.00
2013-7-28,95,81,68,75,66,56,100,66,28,29.78,29.70,7,0,10,0.00
2013-7-29,95,82,73,72,69,64,88,68,37,29.81,29.71,5,0,12,0.00
2013-7-30,97,85,76,75,70,64,86,63,36,29.84,29.73,4,0,8,0.00
2013-7-31,102,86,75,79,70,61,100,66,28,29.83,29.68,8,0,11,0.00
2013-8-1,99,86,77,81,72,62,100,69,31,29.79,29.69,7,0,11,0.00
2013-8-2,103,87,74,76,72,63,97,66,29,29.74,29.63,4,0,8,0.00
2013-8-3,98,87,75,77,70,63,97,63,34,29.81,29.68,4,0,8,0.00
2013-8-4,100,84,76,80,74,65,100,77,33,29.86,29.77,2,0,4,0.00
2013-8-5,108,92,76,79,66,46,100,50,14,29.76,29.60,8,0,11,0.00
2013-8-6,105,88,73,78,68,53,100,60,19,29.68,29.55,4,0,8,0.00
2013-8-7,101,87,73,76,68,59,100,58,27,29.68,29.55,7,0,10,0.00
2013-8-8,100,87,75,75,69,62,94,59,30,29.67,29.54,7,0,11,0.00
2013-8-9,101,86,75,72,65,48,76,53,18,29.73,29.63,5,0,8,0.00
2013-8-10,105,88,74,77,68,54,97,56,19,29.80,29.69,4,0,7,0.00
2013-8-11,101,84,74,75,70,60,100,66,27,29.84,29.73,8,0,13,0.32
2013-8-12,104,83,73,78,70,57,100,73,24,29.82,29.67,12,0,16,1.23
2013-8-13,97,80,72,75,70,60,100,74,31,29.81,29.68,5,0,8,0.01
2013-8-14,89,78,68,74,65,54,97,68,33,29.83,29.72,8,0,16,0.00
2013-8-15,92,78,61,62,55,43,92,51,21,29.87,29.74,3,0,8,0.00
2013-8-16,85,71,63,60,56,49,84,61,30,29.86,29.77,4,0,8,0.00
2013-8-17,92,75,59,65,55,41,93,57,17,29.86,29.75,8,0,11,0.00
2013-8-18,95,78,63,72,59,44,100,60,19,29.88,29.77,5,0,11,0.00
2013-8-19,97,80,65,68,58,29,97,57,10,29.88,29.73,2,0,5,0.00
2013-8-20,97,80,65,71,59,35,97,57,12,29.85,29.73,5,0,9,0.00
2013-8-21,100,82,67,72,60,33,97,57,10,29.88,29.75,2,0,7,0.00
2013-8-22,104,86,70,69,62,47,88,51,16,29.86,29.70,4,0,6,0.00
2013-8-23,103,85,71,75,65,49,94,56,18,29.82,29.69,4,0,7,0.00
2013-8-24,100,85,73,72,64,52,89,54,21,29.87,29.76,7,0,11,0.00
2013-8-25,97,85,73,74,64,51,88,54,22,29.95,29.84,8,0,13,0.00
2013-8-26,96,81,71,71,65,51,91,62,24,29.97,29.88,8,0,13,0.00
2013-8-27,102,89,68,70,62,47,91,46,16,29.55,29.38,4,0,8,0.00
2013-8-28,106,87,72,75,61,36,89,54,10,29.48,29.35,7,0,9,0.00
2013-8-29,107,87,70,72,60,36,89,51,10,29.47,29.32,4,0,7,0.00
2013-8-30,108,87,70,74,60,37,97,52,10,29.42,29.24,4,0,7,0.00
2013-8-31,106,86,71,72,64,38,91,56,10,29.32,29.18,3,0,7,0.00
2013-9-1,109,87,71,75,64,39,97,55,10,29.28,29.13,6,0,13,0.00
2013-9-2,102,84,72,79,68,54,100,66,22,29.36,29.22,16,1,27,1.00
2013-9-3,105,85,72,77,65,36,100,60,10,29.38,29.26,4,0,7,0.00
2013-9-4,100,84,71,65,54,33,70,43,10,29.49,29.36,6,0,10,0.00
2013-9-5,104,82,65,60,51,33,75,42,10,29.53,29.40,4,0,8,0.00
2013-9-6,108,82,65,64,54,34,81,47,10,29.50,29.34,2,0,5,0.00
2013-9-7,106,84,67,67,57,36,81,49,10,29.44,29.29,5,0,8,0.00
2013-9-8,106,85,68,73,58,34,97,53,10,29.39,29.25,6,0,10,0.00
2013-9-9,102,83,67,74,57,33,100,53,10,29.41,29.30,8,0,13,0.00
2013-9-10,101,81,65,70,59,40,92,57,13,29.51,29.36,5,0,8,0.00
2013-9-11,92,74,69,72,68,63,94,80,39,29.51,29.45,3,0,4,0.00
2013-9-12,103,85,69,73,61,38,97,52,11,29.84,29.69,2,0,4,0.00
2013-9-13,96,80,70,72,63,53,95,60,24,29.76,29.64,6,0,9,0.00
2013-9-14,91,77,66,52,42,26,56,33,10,29.82,29.69,8,1,11,0.00
2013-9-15,99,78,60,62,47,32,71,40,11,29.84,29.74,4,0,4,0.00
2013-9-16,102,81,65,68,52,34,87,46,11,29.88,29.75,0,0,2,0.00
2013-9-17,99,85,69,64,58,44,64,43,16,29.88,29.73,4,0,7,0.00
2013-9-18,96,78,73,70,64,57,83,64,29,29.80,29.67,0,0,4,0.01
2013-9-19,101,83,70,71,63,45,88,57,15,29.79,29.62,8,0,16,0.07
2013-9-20,76,73,70,76,71,67,100,94,79,29.72,29.58,2,0,6,1.55
2013-9-21,92,73,57,67,45,23,94,50,10,29.73,29.61,7,0,11,0.01
2013-9-22,88,67,51,62,46,23,100,59,10,29.73,29.58,6,0,9,0.00
2013-9-23,87,69,53,61,47,32,100,55,15,29.67,29.54,8,0,14,0.00
2013-9-24,96,75,59,61,44,17,93,47,10,29.66,29.55,11,1,16,0.00
2013-9-25,100,73,56,59,48,28,86,52,10,29.66,29.52,9,1,12,0.00
2013-9-26,96,74,59,68,53,29,100,59,10,29.71,29.59,5,0,9,0.00
2013-9-27,94,77,61,62,55,37,93,54,14,29.77,29.65,8,0,12,0.00
2013-9-28,89,74,70,72,64,58,100,73,40,29.78,29.67,11,0,17,1.12
2013-9-29,91,76,67,73,65,50,99,74,25,29.77,29.63,6,0,8,0.05
2013-9-30,90,75,65,75,65,52,100,75,28,29.67,29.58,4,0,7,0.01
2013-10-1,90,76,70,77,70,63,100,83,42,29.75,29.62,4,0,8,0.00
2013-10-2,91,78,72,74,67,58,100,74,33,29.79,29.67,5,0,8,0.00
2013-10-3,94,78,70,76,68,59,100,73,31,29.74,29.61,6,0,11,0.02
2013-10-4,92,79,70,75,65,53,100,68,28,29.71,29.62,8,0,17,0.00
2013-10-5,89,75,53,76,67,48,100,79,43,29.83,29.66,11,2,17,0.22
2013-10-6,76,61,49,50,40,18,96,57,12,29.83,29.73,13,2,18,0.01
2013-10-7,88,64,48,49,37,17,92,51,10,29.90,29.80,6,0,9,0.00
2013-10-8,81,62,46,57,42,22,96,58,12,29.92,29.79,6,0,8,0.00
2013-10-9,85,63,46,58,45,30,100,62,14,29.89,29.77,3,0,6,0.00
2013-10-10,85,66,49,58,49,38,97,62,20,29.88,29.70,6,0,10,0.00
2013-10-11,63,62,60,55,54,53,83,76,71,29.71,29.69,0,0,1,0.00
2013-10-12,84,73,68,71,67,62,100,83,58,29.85,29.67,4,0,9,0.01
2013-10-13,80,69,67,70,64,58,99,85,47,30.00,29.85,7,0,13,0.01
2013-10-14,69,66,63,68,60,48,100,79,57,29.95,29.74,0,0,2,0.17
2013-10-15,78,69,62,75,69,62,100,98,77,29.77,29.66,7,0,13,1.05
2013-10-16,62,58,55,62,57,54,100,98,91,29.84,29.73,4,0,7,0.25
2013-10-17,77,60,47,56,45,24,100,68,16,29.87,29.74,7,1,11,0.01
2013-10-18,78,58,45,58,49,36,100,75,22,29.82,29.69,4,0,8,0.01
2013-10-19,74,57,43,57,32,8,89,49,10,29.93,29.75,12,1,17,0.00
2013-10-20,74,54,36,45,34,12,92,58,10,29.87,29.68,5,0,12,0.00
2013-10-21,73,58,47,56,49,42,95,76,37,29.84,29.72,2,0,6,0.14
2013-10-22,75,58,42,56,41,14,100,65,10,29.92,29.74,10,1,14,0.01
2013-10-23,83,60,44,55,39,16,97,59,10,29.93,29.80,2,0,5,0.00
2013-10-24,85,62,46,59,40,19,97,55,10,30.09,29.80,7,0,11,0.00
2013-10-25,65,52,44,39,26,7,71,41,10,30.27,30.06,9,0,15,0.00
2013-10-26,56,48,42,56,43,35,100,83,59,30.06,29.84,0,0,2,3.24
2013-10-27,77,62,55,64,54,47,100,80,36,29.88,29.76,9,1,13,0.01
2013-10-28,78,64,53,63,56,49,100,77,37,29.92,29.80,3,0,7,0.00
2013-10-29,82,71,64,66,62,58,94,75,45,29.90,29.78,8,0,14,0.00
2013-10-30,74,68,64,70,62,52,100,82,47,29.82,29.61,8,1,17,0.21
2013-10-31,81,67,50,73,51,16,100,70,10,29.62,29.39,19,3,25,0.26
2013-11-1,84,61,42,53,37,16,94,54,10,29.78,29.59,5,0,8,0.00
2013-11-2,70,55,40,43,28,7,81,45,10,30.00,29.78,11,1,17,0.00
2013-11-3,70,51,34,42,31,13,90,54,11,30.04,29.82,9,1,17,0.00
2013-11-4,57,54,51,56,48,39,100,80,59,29.93,29.82,0,0,2,0.21
2013-11-5,68,62,56,66,61,56,100,96,74,29.91,29.73,7,0,11,1.35
2013-11-6,69,68,66,68,68,66,99,99,99,29.74,29.71,4,1,8,0.35
2013-11-7,68,49,34,46,33,15,93,63,13,30.25,30.11,5,1,8,0.00
2013-11-8,72,60,39,50,28,9,97,36,10,30.14,29.91,8,1,11,0.00
2013-11-9,59,55,51,49,47,41,83,75,62,30.03,29.91,4,0,8,0.01
2013-11-10,76,60,49,54,44,24,91,62,14,30.12,30.02,4,0,8,0.00
2013-11-11,79,58,42,57,42,28,97,65,16,30.07,29.93,6,0,8,0.00
2013-11-12,62,50,30,53,24,-4,90,44,10,30.44,30.02,8,0,15,0.00
2013-11-13,31,28,26,20,18,17,69,65,58,30.47,30.44,0,0,1,0.00
2013-11-14,58,42,24,28,15,0,79,43,10,30.18,29.85,7,1,12,0.01
2013-11-15,57,52,45,56,50,28,100,93,46,29.85,29.67,0,0,2,0.27
2013-11-16,74,65,57,68,61,56,100,88,60,29.69,29.48,9,1,15,0.00
2013-11-17,87,75,58,67,49,14,79,48,10,29.78,29.44,17,4,21,0.00
2013-11-18,78,61,44,35,18,2,57,24,10,29.99,29.77,2,0,4,0.00
2013-11-19,66,54,48,35,18,1,58,28,10,30.02,29.85,12,1,20,0.00
2013-11-20,50,48,46,26,24,23,46,38,35,29.88,29.85,0,0,1,0.00
2013-11-27,54,37,25,16,3,-12,66,29,10,30.20,30.08,6,1,9,0.00
2013-11-28,57,36,22,23,11,-4,75,45,10,30.26,30.15,2,0,5,0.00
2013-11-29,62,40,23,31,16,0,83,47,10,30.33,30.15,4,0,7,0.00
2013-11-30,69,50,29,40,29,17,80,50,19,30.17,29.92,10,1,14,0.00
2013-12-1,66,58,50,50,45,40,80,64,46,29.96,29.64,2,0,4,0.00
2013-12-2,69,55,44,58,47,40,95,78,39,29.63,29.45,3,0,6,0.00
2013-12-3,64,55,41,60,52,39,100,90,62,29.46,29.30,4,0,7,0.01
2013-12-4,81,63,51,66,50,37,99,68,26,29.59,29.37,10,2,14,0.00
2013-12-5,51,40,34,37,30,21,91,69,45,29.94,29.59,13,2,19,0.52
2013-12-6,36,32,27,34,28,19,94,84,69,30.26,29.85,8,0,13,0.90
2013-12-7,42,31,26,22,17,13,79,57,33,30.32,30.06,9,0,18,0.00
2013-12-8,36,32,28,32,24,14,86,72,53,30.07,29.83,8,0,11,0.00
2013-12-9,37,35,31,32,26,20,89,69,56,30.12,29.93,9,0,12,0.01
2013-12-10,52,34,22,24,12,-5,75,48,10,30.28,30.11,11,2,16,0.00
2013-12-11,53,34,21,30,19,9,83,56,17,30.36,30.14,7,0,11,0.00
2013-12-12,54,38,21,29,7,-8,78,37,10,30.41,30.14,6,0,9,0.00
2013-12-13,40,37,33,39,28,16,97,70,42,30.14,29.62,5,0,8,0.50
2013-12-14,46,40,32,44,32,22,100,76,50,30.06,29.60,12,2,19,0.01
2013-12-15,59,40,28,27,18,0,79,52,10,30.11,29.98,8,1,9,0.00
2013-12-16,70,44,26,33,20,4,85,51,10,30.04,29.91,6,0,8,0.00
2013-12-17,76,47,28,40,24,10,88,51,10,30.07,29.97,5,0,8,0.00
2013-12-18,73,50,31,38,24,9,87,46,10,30.06,29.81,8,1,16,0.00
2013-12-19,69,59,44,56,44,30,85,60,39,29.82,29.55,9,2,16,0.00
2013-12-20,73,65,53,63,56,46,85,73,60,29.64,29.44,11,2,14,0.01
2013-12-21,58,49,42,58,48,39,100,96,78,29.55,29.26,17,3,24,1.50
2013-12-22,44,38,32,44,26,16,100,65,44,30.14,29.54,12,5,20,0.00
2013-12-23,52,36,24,28,14,-4,77,45,10,30.33,30.14,6,1,8,0.00
2013-12-24,51,36,23,26,18,9,79,52,20,30.35,30.08,11,1,18,0.00
2013-12-25,54,38,29,29,24,14,80,58,21,30.17,30.08,8,0,10,0.00
2013-12-26,63,40,25,36,20,2,86,55,10,30.23,30.09,3,0,6,0.00
2013-12-27,69,42,26,36,19,2,85,51,10,30.24,30.11,4,0,7,0.00
2013-12-28,64,46,34,33,23,7,77,48,11,30.12,29.77,7,0,10,0.00
2013-12-29,62,44,34,32,23,13,73,47,15,30.00,29.74,11,2,17,0.00
2013-12-30,46,33,25,25,18,11,76,55,26,30.19,29.99,7,1,10,0.00
2013-12-31,58,38,20,27,12,-2,79,45,10,30.25,30.01,10,1,14,0.00
2014-1-1,66,46,28,39,25,16,77,48,16,30.02,29.65,14,2,24,0.01
2014-1-2,46,35,24,19,2,-12,48,29,10,30.25,29.81,15,5,23,0.01